Angleton, TX

6:00 AM CDT on May 25, 2017 (GMT -0500)
Brazoria County

Weather History for KLBX - April, 2014

Change the Weather History Date:

Wednesday, April 16, 2014

  Actual Average Record
Temperature  
Mean Temperature 52 °F -  
Max Temperature 69 °F 75 °F 86 °F (1998)
Min Temperature 37 °F 61 °F 37 °F (2014)
Degree Days  
Heating Degree Days 14    
Growing Degree Days 2 (Base 50)    
Moisture  
Dew Point 45 °F    
Average Humidity 73    
Maximum Humidity 97    
Minimum Humidity 47    
Precipitation  
Precipitation 0.00 in - - ()
Sea Level Pressure  
Sea Level Pressure 30.11 in    
Wind  
Wind Speed 6 mph (East)    
Max Wind Speed 15 mph    
Max Gust Speed 23 mph    
Visibility 10 miles    
Events      
Averages and records for this station are not official NWS values.
T = Trace of Precipitation, MM = Missing Value Source: NWS Daily Summary

Daily Weather History Graph

Daily Weather History Graph

Search for Another Location

Airport or City:

Trip Planner

Search our weather history database for the weather conditions in past years. The results will help you decide how hot, cold, wet, or windy it might be!

Date:

Astronomy

Apr. 16, 2014 Rise Set
Actual Time 6:54 AM CDT 7:48 PM CDT
Civil Twilight 6:30 AM CDT 8:13 PM CDT
Nautical Twilight 6:01 AM CDT 8:42 PM CDT
Astronomical Twilight 5:32 AM CDT 9:11 PM CDT
Moon 9:26 PM CDT (4/16) 7:47 AM CDT (4/16)
Length of Visible Light 13h 42m
Length of Day
12h 54m
Full, 98% of the Moon is Illuminated
Apr 16
Full
Apr 22
Last Quarter
Apr 29
New
May 6
First Quarter
May 14
Full

Hourly Weather History & Observations

Time (CDT) Temp. Windchill Dew Point Humidity Pressure Visibility Wind Dir Wind Speed Gust Speed Precip Events Conditions
12:53 AM 37.0 °F - 35.1 °F 93% 30.17 in 10.0 mi Calm Calm - N/A   Clear
1:53 AM 37.0 °F 34.5 °F 35.1 °F 93% 30.17 in 10.0 mi North 3.5 mph - N/A   Clear
2:53 AM 37.9 °F 35.5 °F 36.0 °F 93% 30.16 in 10.0 mi North 3.5 mph - N/A   Clear
3:53 AM 37.9 °F 35.5 °F 37.0 °F 97% 30.15 in 10.0 mi North 3.5 mph - N/A   Clear
4:53 AM 39.0 °F 35.7 °F 37.9 °F 96% 30.14 in 10.0 mi NE 4.6 mph - N/A   Clear
5:53 AM 39.0 °F 36.8 °F 37.9 °F 96% 30.14 in 10.0 mi NNE 3.5 mph - N/A   Clear
6:53 AM 41.0 °F 39.0 °F 37.9 °F 89% 30.15 in 10.0 mi NNE 3.5 mph - N/A   Clear
7:53 AM 46.9 °F - 43.0 °F 86% 30.16 in 10.0 mi NE 4.6 mph - N/A   Clear
8:53 AM 55.9 °F - 46.0 °F 69% 30.16 in 10.0 mi ESE 5.8 mph - N/A   Scattered Clouds
9:53 AM 61.0 °F - 43.0 °F 52% 30.18 in 10.0 mi ESE 12.7 mph - N/A   Overcast
10:53 AM 63.0 °F - 43.0 °F 48% 30.18 in 10.0 mi ESE 15.0 mph - N/A   Mostly Cloudy
11:53 AM 66.0 °F - 45.0 °F 47% 30.16 in 10.0 mi SE 11.5 mph 20.7 mph N/A   Scattered Clouds
12:53 PM 64.0 °F - 46.9 °F 54% 30.14 in 10.0 mi East 15.0 mph 23.0 mph N/A   Overcast
1:53 PM 66.0 °F - 46.9 °F 50% 30.11 in 10.0 mi SE 13.8 mph - N/A   Mostly Cloudy
2:53 PM 66.9 °F - 48.0 °F 51% 30.09 in 10.0 mi South 15.0 mph 19.6 mph N/A   Mostly Cloudy
3:53 PM 66.9 °F - 48.9 °F 52% 30.06 in 10.0 mi ESE 12.7 mph - N/A   Mostly Cloudy
5:53 PM 64.9 °F - 51.1 °F 61% 30.03 in 10.0 mi SE 12.7 mph 17.3 mph N/A   Mostly Cloudy
6:53 PM 63.0 °F - 51.1 °F 65% 30.03 in 10.0 mi East 8.1 mph - N/A   Overcast
7:53 PM 62.1 °F - 52.0 °F 70% 30.03 in 10.0 mi ESE 8.1 mph - N/A   Mostly Cloudy
8:53 PM 61.0 °F - 53.1 °F 75% 30.04 in 10.0 mi SE 6.9 mph - N/A   Clear
9:53 PM 61.0 °F - 54.0 °F 78% 30.04 in 10.0 mi ESE 8.1 mph - N/A   Clear
10:53 PM 61.0 °F - 55.0 °F 81% 30.04 in 10.0 mi SE 8.1 mph - N/A   Clear
11:53 PM 62.1 °F - 55.0 °F 78% 30.04 in 10.0 mi ESE 10.4 mph - N/A   Partly Cloudy